Change the Weather History Date:

Monday, October 8, 2012

  Actual Average Record
Temperature  
Mean Temperature 57 °F 55 °F  
Max Temperature 76 °F 68 °F 91 °F (2010)
Min Temperature 37 °F 43 °F 16 °F (2000)
Degree Days  
Heating Degree Days 8 10  
Month to date heating degree days 120 72  
Since 1 July heating degree days 190 187  
Cooling Degree Days 0 1  
Month to date cooling degree days 2 8  
Year to date cooling degree days 1505 1031  
Growing Degree Days 6 (Base 50)    
Moisture  
Dew Point 27 °F    
Average Humidity 46    
Maximum Humidity 79    
Minimum Humidity 12    
Precipitation  
Precipitation 0.00 in 0.07 in 1.09 in (1992)
Month to date precipitation 0.01 0.55  
Year to date precipitation 8.59 23.55  
Snow  
Snow 0.00 in 0.00 in 0.10 in (1970)
Month to date snowfall 0.0 0.1  
Since 1 July snowfall 0.0 0.2  
Since 1 September snowfall 0.0 0.2  
Snow Depth 0.00 in    
Sea Level Pressure  
Sea Level Pressure 29.88 in    
Wind  
Wind Speed 12 mph (SW)    
Max Wind Speed 26 mph    
Max Gust Speed 31 mph    
Visibility 10 miles    
Events      
T = Trace of Precipitation, MM = Missing Value Source: NWS Daily Summary

Daily Weather History Graph

Daily Weather History Graph

Search for Another Location

Airport or City:

Trip Planner

Search our weather history database for the weather conditions in past years. The results will help you decide how hot, cold, wet, or windy it might be!

Date:

Astronomy

Oct. 08, 2012 Rise Set
Actual Time 7:37 AM CDT 7:02 PM CDT
Civil Twilight 7:10 AM CDT 7:30 PM CDT
Nautical Twilight 6:38 AM CDT 8:02 PM CDT
Astronomical Twilight 6:06 AM CDT 8:33 PM CDT
Moon 12:15 AM CDT (10/8) 2:56 PM CDT (10/8)
Length of Visible Light 12h 20m
Length of Day
11h 25m
Last Quarter, 46% of the Moon is Illuminated
Oct 8
Last Quarter
Oct 15
New
Oct 21
First Quarter
Oct 29
Full
Nov 6
Last Quarter

Hourly Weather History & Observations

Time (CDT) Temp. Windchill Dew Point Humidity Pressure Visibility Wind Dir Wind Speed Gust Speed Precip Events Conditions
12:53 AM 43.0 °F 36.0 °F 35.1 °F 74% 30.01 in 10.0 mi SW 13.8 mph - N/A   Clear
1:53 AM 42.1 °F 34.9 °F 35.1 °F 76% 30.01 in 10.0 mi SW 13.8 mph - N/A   Clear
2:53 AM 41.0 °F 33.5 °F 34.0 °F 76% 30.00 in 10.0 mi SW 13.8 mph - N/A   Clear
3:53 AM 39.0 °F 32.8 °F 34.0 °F 82% 29.98 in 10.0 mi SW 9.2 mph - N/A   Clear
4:53 AM 39.0 °F 31.4 °F 33.1 °F 79% 29.98 in 10.0 mi WSW 12.7 mph - N/A   Clear
5:53 AM 37.9 °F 31.5 °F 30.9 °F 76% 29.97 in 10.0 mi SW 9.2 mph - N/A   Clear
6:53 AM 37.9 °F 30.5 °F 30.0 °F 73% 29.96 in 10.0 mi WSW 11.5 mph - N/A   Clear
7:53 AM 37.9 °F 32.7 °F 28.0 °F 68% 29.96 in 10.0 mi SW 6.9 mph - N/A   Clear
8:53 AM 45.0 °F 38.9 °F 27.0 °F 49% 29.94 in 10.0 mi SW 12.7 mph - N/A   Clear
9:53 AM 52.0 °F - 27.0 °F 38% 29.93 in 10.0 mi SW 10.4 mph - N/A   Clear
10:53 AM 57.9 °F - 28.0 °F 32% 29.91 in 10.0 mi SW 15.0 mph - N/A   Clear
11:53 AM 64.9 °F - 28.0 °F 25% 29.88 in 10.0 mi SSW 16.1 mph - N/A   Clear
12:53 PM 71.1 °F - 24.1 °F 17% 29.84 in 10.0 mi SW 19.6 mph 28.8 mph N/A   Clear
1:53 PM 73.0 °F - 21.0 °F 14% 29.81 in 10.0 mi SW 23.0 mph 28.8 mph N/A   Clear
2:53 PM 75.0 °F - 21.9 °F 14% 29.79 in 10.0 mi WSW 18.4 mph 29.9 mph N/A   Clear
3:53 PM 75.0 °F - 19.9 °F 13% 29.78 in 10.0 mi WSW 18.4 mph 26.5 mph N/A   Clear
4:53 PM 73.9 °F - 19.0 °F 13% 29.77 in 10.0 mi SW 16.1 mph 25.3 mph N/A   Clear
5:53 PM 72.0 °F - 19.9 °F 14% 29.78 in 10.0 mi SW 15.0 mph - N/A   Clear
6:53 PM 66.9 °F - 23.0 °F 19% 29.78 in 10.0 mi SSW 9.2 mph - N/A   Clear
7:53 PM 60.1 °F - 24.1 °F 25% 29.79 in 10.0 mi SSW 8.1 mph - N/A   Clear
8:53 PM 55.9 °F - 25.0 °F 30% 29.79 in 10.0 mi SW 3.5 mph - N/A   Clear
9:53 PM 55.0 °F - 23.0 °F 29% 29.81 in 10.0 mi North 8.1 mph 18.4 mph N/A   Clear
10:53 PM 50.0 °F - 26.1 °F 39% 29.82 in 10.0 mi Calm Calm - N/A   Clear
11:53 PM 46.4 °F 42.9 °F 28.4 °F 50% 29.85 in 10.0 mi NNW 6.9 mph - N/A   Clear